EW0680 Weather Reports


time (UTC)temp
F
wind
direction
speed
knots
gust
knots
rain 1hr
in
rain 24hr
in
rain mn
in
humidity
%
barometer
mb
20260903010041 81 122 0.0 0.0 0.00 0.00 0.00 81 1014.4
20260903004552 82 122 0.0 0.0 0.00 0.00 0.00 80 1014.4
20260903003106 82 122 0.0 0.0 0.00 0.00 0.00 79 1014.3
20260903001554 83 122 0.0 0.0 0.00 0.00 0.00 78 1014.2
20260903000108 84 122 0.0 0.0 0.00 0.00 0.00 78 1014.2
20260903000002 84 122 0.0 0.0 0.00 0.00 0.00 78 1014.2
20260902234507 85 122 0.0 0.0 0.00 0.00 0.00 78 1014.2
20260902233012 85 122 0.0 0.0 0.00 0.00 0.00 76 1014.1
20260902231558 86 122 0.0 0.0 0.00 0.00 0.00 75 1014.1
20260902230009 87 122 0.0 0.0 0.00 0.00 0.00 74 1014.3
20260902224516 88 122 0.0 1.7 0.00 0.00 0.00 71 1014.2
20260902223023 89 295 0.0 2.6 0.00 0.00 0.00 71 1014.2
20260902221509 90 322 0.0 0.0 0.00 0.00 0.00 70 1014.5
20260902220014 91 344 0.0 1.7 0.00 0.00 0.00 67 1014.5
20260902214536 91 298 0.0 2.6 0.00 0.00 0.00 66 1014.4
20260902213023 92 328 0.0 3.5 0.00 0.00 0.00 66 1014.5
20260902211529 92 277 0.0 2.6 0.00 0.00 0.00 67 1014.6
20260902210031 92 262 0.0 2.6 0.00 0.00 0.00 65 1014.6
20260902204540 92 285 0.9 7.0 0.00 0.00 0.00 63 1014.7
20260902203020 92 225 0.0 0.0 0.00 0.00 0.00 64 1014.8
20260902201531 92 82 0.0 1.7 0.00 0.00 0.00 67 1015.0
20260902200021 93 256 0.0 2.6 0.00 0.00 0.00 65 1015.2
20260902194534 93 320 0.0 2.6 0.00 0.00 0.00 65 1015.4
20260902193005 93 231 1.7 7.0 0.00 0.00 0.00 64 1015.6
20260902191509 92 13 0.0 6.1 0.00 0.00 0.00 65 1015.6
20260902190015 92 104 0.0 2.6 0.00 0.00 0.00 64 1015.7
20260902184521 92 270 0.0 4.3 0.00 0.00 0.00 66 1015.7
20260902183025 92 335 0.0 4.3 0.00 0.00 0.00 62 1016.0
20260902181527 92 322 0.9 3.5 0.00 0.00 0.00 66 1016.1
20260902180031 91 342 0.0 2.6 0.00 0.00 0.00 65 1016.2
20260902174521 91 331 0.0 2.6 0.00 0.00 0.00 68 1016.3
20260902173015 90 271 0.9 2.6 0.00 0.00 0.00 67 1016.5
20260902171520 91 302 0.0 3.5 0.00 0.00 0.00 66 1016.7
20260902170032 90 92 0.0 5.2 0.00 0.00 0.00 68 1016.7
20260902164538 90 71 0.9 4.3 0.00 0.00 0.00 70 1016.8
20260902163013 90 254 0.0 4.3 0.00 0.00 0.00 72 1016.9
20260902161523 90 301 0.0 2.6 0.00 0.00 0.00 70 1016.9
20260902160015 89 289 0.0 2.6 0.00 0.00 0.00 71 1016.8
20260902154520 88 317 0.9 3.5 0.00 0.00 0.00 71 1016.8
20260902153056 87 211 0.0 2.6 0.00 0.00 0.00 74 1016.8
20260902151601 86 310 0.0 2.6 0.00 0.00 0.00 75 1016.8
20260902151502 86 314 0.0 2.6 0.00 0.00 0.00 76 1016.8
20260902150054 86 312 1.7 3.5 0.00 0.00 0.00 76 1016.9
20260902144559 84 317 0.9 3.5 0.00 0.00 0.00 77 1017.0
20260902143055 83 321 0.9 3.5 0.00 0.00 0.00 78 1017.0
20260902141538 82 312 0.0 2.6 0.00 0.00 0.00 79 1017.1
20260902140039 81 315 0.0 2.6 0.00 0.00 0.00 82 1017.0
20260902134541 80 314 0.9 2.6 0.00 0.00 0.00 82 1017.0
20260902133054 79 313 0.0 0.9 0.00 0.00 0.00 83 1017.0
20260902131540 78 300 0.0 0.0 0.00 0.00 0.00 85 1017.0
20260902130043 77 285 0.0 0.0 0.00 0.00 0.00 86 1017.1
20260902124523 76 285 0.0 0.9 0.00 0.00 0.00 87 1017.0
20260902123009 74 285 0.0 0.0 0.00 0.00 0.00 88 1017.0
20260902121514 73 285 0.0 0.0 0.00 0.00 0.00 88 1016.9
20260902120019 72 285 0.0 0.0 0.00 0.00 0.00 88 1016.8
20260902114520 72 285 0.0 0.0 0.00 0.00 0.00 88 1016.6
20260902113024 72 285 0.0 0.0 0.00 0.00 0.00 88 1016.5
20260902111531 71 285 0.0 0.0 0.00 0.00 0.00 88 1016.3
20260902110037 72 285 0.0 0.0 0.00 0.00 0.00 88 1016.2
20260902104558 72 285 0.0 0.0 0.00 0.00 0.00 88 1016.1
20260902103040 72 285 0.0 0.0 0.00 0.00 0.00 88 1016.1
20260902101551 72 285 0.0 0.0 0.00 0.00 0.00 88 1016.0
20260902100045 72 285 0.0 0.0 0.00 0.00 0.00 88 1016.0
20260902093030 72 285 0.0 0.0 0.00 0.00 0.00 88 1016.1
20260902091538 73 285 0.0 0.0 0.00 0.00 0.00 88 1016.1
20260902090036 73 285 0.0 0.0 0.00 0.00 0.00 88 1016.0
20260902084542 73 285 0.0 0.0 0.00 0.00 0.00 88 1015.9
20260902083056 73 285 0.0 0.0 0.00 0.00 0.00 88 1015.8
20260902081546 73 285 0.0 0.0 0.00 0.00 0.00 88 1015.7
20260902080050 73 285 0.0 0.0 0.00 0.00 0.00 88 1015.6
20260902074609 73 285 0.0 0.0 0.00 0.00 0.00 87 1015.7
20260902073059 73 285 0.0 0.0 0.00 0.00 0.00 87 1015.5
20260902073003 74 285 0.0 0.0 0.00 0.00 0.00 87 1015.5
20260902071504 74 285 0.0 0.0 0.00 0.00 0.00 87 1015.6
20260902070010 74 285 0.0 0.0 0.00 0.00 0.00 87 1015.7
20260902064508 74 285 0.0 0.0 0.00 0.00 0.00 88 1015.7
20260902063008 73 285 0.0 0.0 0.00 0.00 0.00 87 1015.8
20260902061518 74 285 0.0 0.0 0.00 0.00 0.00 86 1015.9
20260902060010 75 285 0.0 0.0 0.00 0.00 0.00 86 1015.9
20260902054518 75 285 0.0 0.0 0.00 0.00 0.00 86 1015.8
20260902053105 75 285 0.0 0.0 0.00 0.00 0.00 86 1015.8
20260902051615 75 285 0.0 0.0 0.00 0.00 0.00 85 1015.7
20260902050108 76 285 0.0 0.0 0.00 0.00 0.00 85 1015.7
20260902050007 76 285 0.0 0.0 0.00 0.00 0.00 85 1015.7
20260902044520 76 285 0.0 0.0 0.00 0.00 0.00 85 1015.7
20260902043012 76 285 0.0 0.0 0.00 0.00 0.00 85 1015.7
20260902041514 76 285 0.0 0.0 0.00 0.00 0.00 85 1015.8
20260902040012 77 285 0.0 0.0 0.00 0.00 0.00 85 1015.9
20260902034554 77 285 0.0 0.0 0.00 0.00 0.00 85 1015.7
20260902034501 77 285 0.0 0.0 0.00 0.00 0.00 85 1015.7
20260902033058 77 285 0.0 0.0 0.00 0.00 0.00 84 1015.7
20260902031537 78 285 0.0 0.0 0.00 0.00 0.00 84 1015.7
20260902030031 78 285 0.0 0.0 0.00 0.00 0.00 84 1015.7
20260902024534 78 285 0.0 0.0 0.00 0.00 0.00 83 1015.8
20260902023039 79 285 0.0 0.0 0.00 0.00 0.00 83 1015.8
20260902021544 79 285 0.0 0.0 0.00 0.00 0.00 83 1015.7
20260902020046 79 285 0.0 0.0 0.00 0.00 0.00 83 1015.6
20260902014532 80 285 0.0 0.0 0.00 0.00 0.00 82 1015.5
20260902013038 80 285 0.0 0.0 0.00 0.00 0.00 81 1015.5
20260902011559 80 285 0.0 0.0 0.00 0.00 0.00 81 1015.3